Location: Unspecified
(40.7945°N, 0.0000°E)
Time: 06:16:20
(UTC+00:00)

Explorer 7 - Pass Details

Date: 29 January 2021
Orbit: 484 x 677 km, 50.3° (Epoch: 07 March)

Event Time Altitude Azimuth Distance (km) Brightness Sun altitude
Rises 06:31:11 0° 303° (WNW) 2,603 - -8.3°
Exits shadow 06:33:07 - 313° (NW) 1,913 9.0 -7.9°
Reaches altitude 10° 06:33:38 10° 317° (NW) 1,743 8.9 -7.8°
Maximum altitude 06:36:55 25° 14° (NNE) 1,111 8.4 -7.2°
Drops below altitude 10° 06:40:22 10° 70° (ENE) 1,828 10.4 -6.6°
Sets 06:43:00 0° 84° (E) 2,762 11.8 -6.1°
